Location: Mauries
(43.6188°N, 0.3322°W)
Time: 11:48:24
(UTC+00:00)

Envisat - Pass Details

Date: 18 March 2026
Orbit: 761 x 762 km, 98.4° (Epoch: 14 April)

Event Time Altitude Azimuth Distance (km) Brightness Sun altitude
Rises 02:30:10 0° 16° (NNE) 3,234 7.0 -37.1°
Reaches altitude 10° 02:32:30 10° 19° (NNE) 2,303 6.1 -36.8°
Enters shadow 02:34:42 26° 26° (NNE) 1,475 4.9 -36.5°
